EW4538 Weather Reports


time (UTC)temp
F
wind
direction
speed
knots
gust
knots
rain 1hr
in
rain 24hr
in
rain mn
in
humidity
%
barometer
mb
20260508234804 76 151 4.3 10.4 0.00 0.00 0.00 73 1009.0
20260508234304 76 162 6.1 12.2 0.00 0.00 0.00 72 1009.0
20260508233804 76 161 6.1 12.2 0.00 0.00 0.00 72 1009.0
20260508233304 77 151 7.0 10.4 0.00 0.00 0.00 72 1008.9
20260508231804 77 143 7.0 10.4 0.00 0.00 0.00 71 1008.9
20260508230804 77 150 6.1 11.3 0.00 0.00 0.00 71 1008.9
20260508230304 77 152 8.7 13.0 0.00 0.00 0.00 71 1008.8
20260508224804 77 152 8.7 13.0 0.00 0.00 0.00 70 1008.9
20260508224304 77 151 7.8 12.2 0.00 0.00 0.00 70 1008.9
20260508223805 77 158 7.0 13.0 0.00 0.00 0.00 70 1008.8
20260508221804 78 154 7.8 13.0 0.00 0.00 0.00 69 1009.0
20260508221304 78 143 7.8 13.0 0.00 0.00 0.00 69 1008.9
20260508220804 78 151 7.8 13.0 0.00 0.00 0.00 69 1008.9
20260508220305 78 154 8.7 14.8 0.00 0.00 0.00 68 1009.0
20260508214804 78 150 6.1 11.3 0.00 0.00 0.00 69 1009.0
20260508214304 78 168 7.8 12.2 0.00 0.00 0.00 68 1009.1
20260508213304 78 154 6.1 12.2 0.00 0.00 0.00 68 1009.3
20260508211804 78 151 5.2 11.3 0.00 0.00 0.00 68 1009.4
20260508211304 78 160 7.0 12.2 0.00 0.00 0.00 68 1009.6
20260508210804 77 165 7.8 12.2 0.00 0.00 0.00 68 1009.7
20260508210304 77 158 5.2 12.2 0.00 0.00 0.00 68 1009.9
20260508204804 78 152 5.2 11.3 0.00 0.00 0.00 67 1010.0
20260508204304 78 164 8.7 14.8 0.00 0.00 0.00 66 1010.0
20260508203804 78 154 6.1 12.2 0.00 0.00 0.00 66 1010.1
20260508203304 78 151 5.2 11.3 0.00 0.00 0.00 67 1010.1
20260508201804 77 147 5.2 11.3 0.00 0.00 0.00 67 1010.5
20260508201304 77 155 5.2 13.0 0.00 0.00 0.00 67 1010.4
20260508200305 77 109 4.3 11.3 0.00 0.00 0.00 67 1010.6
20260508194804 77 139 4.3 7.8 0.00 0.00 0.00 67 1010.7
20260508193804 77 157 5.2 10.4 0.00 0.00 0.00 66 1010.7
20260508193304 78 114 4.3 11.3 0.00 0.00 0.00 67 1010.8
20260508191804 77 183 4.3 8.7 0.00 0.00 0.00 66 1011.2
20260508191304 78 193 2.6 5.2 0.00 0.00 0.00 65 1011.2
20260508190804 78 169 4.3 7.8 0.00 0.00 0.00 66 1011.2
20260508190304 78 193 2.6 7.0 0.00 0.00 0.00 66 1011.3
20260508184304 77 134 7.0 11.3 0.00 0.00 0.00 66 1011.4
20260508183804 77 163 5.2 8.7 0.00 0.00 0.00 66 1011.4
20260508183304 77 152 5.2 12.2 0.00 0.00 0.00 65 1011.6
20260508181804 80 126 2.6 7.8 0.00 0.00 0.00 61 1011.7
20260508181304 80 182 2.6 5.2 0.00 0.00 0.00 60 1011.8
20260508180804 80 0 1.7 2.6 0.00 0.00 0.00 60 1011.9
20260508180305 79 36 1.7 5.2 0.00 0.00 0.00 62 1011.9
20260508174805 76 315 1.7 5.2 0.00 0.00 0.00 64 1012.1
20260508174304 77 0 3.5 5.2 0.00 0.00 0.00 63 1012.3
20260508173804 76 328 1.7 5.2 0.00 0.00 0.00 65 1012.3
20260508173305 75 196 0.9 4.3 0.00 0.00 0.00 65 1012.5
20260508171804 74 306 2.6 4.3 0.00 0.00 0.00 67 1012.8
20260508171304 73 148 0.9 2.6 0.00 0.00 0.00 68 1012.9
20260508170304 72 31 0.9 7.0 0.00 0.00 0.00 69 1013.0
20260508164304 69 314 2.6 4.3 0.00 0.00 0.00 71 1013.3
20260508163804 69 335 1.7 4.3 0.00 0.00 0.00 71 1013.4
20260508163304 68 150 0.9 1.7 0.00 0.00 0.00 72 1013.6
20260508161804 68 150 0.0 2.6 0.00 0.01 0.00 72 1013.9
20260508161304 68 150 0.9 1.7 0.00 0.01 0.00 72 1013.9
20260508160804 68 150 0.0 1.7 0.00 0.01 0.00 72 1013.8
20260508160304 67 150 0.9 1.7 0.00 0.01 0.00 72 1013.8
20260508154804 66 150 0.0 0.9 0.00 0.01 0.00 74 1014.1
20260508154304 65 150 1.7 1.7 0.00 0.01 0.00 74 1014.2
20260508153804 65 150 1.7 2.6 0.00 0.01 0.00 74 1014.2
20260508153304 65 150 1.7 5.2 0.00 0.01 0.00 74 1014.2
20260508151804 65 156 3.5 7.8 0.00 0.01 0.00 75 1014.4
20260508151304 65 163 5.2 10.4 0.00 0.01 0.00 74 1014.3
20260508150804 65 160 2.6 7.8 0.00 0.01 0.00 75 1014.2
20260508150303 65 156 1.7 7.0 0.00 0.01 0.00 74 1014.1
20260508144304 65 154 1.7 4.3 0.00 0.01 0.00 74 1014.4
20260508143804 65 153 4.3 5.2 0.00 0.01 0.00 74 1014.3
20260508143304 65 157 1.7 7.0 0.00 0.01 0.00 75 1014.3
20260508141804 64 121 2.6 4.3 0.00 0.01 0.00 75 1014.1
20260508141304 64 119 0.9 4.3 0.00 0.01 0.00 76 1014.1
20260508140804 63 130 2.6 2.6 0.00 0.01 0.00 76 1014.1
20260508140305 63 92 2.6 5.2 0.00 0.01 0.00 76 1014.0
20260508134804 62 157 0.9 2.6 0.00 0.01 0.00 77 1014.3
20260508134304 62 157 1.7 7.0 0.00 0.01 0.00 77 1014.4
20260508133805 62 163 4.3 7.8 0.00 0.01 0.00 78 1014.3
20260508133304 62 336 0.0 2.6 0.00 0.01 0.00 78 1014.1
20260508131804 61 336 0.0 1.7 0.00 0.01 0.00 79 1014.3
20260508131304 61 336 0.0 0.0 0.00 0.01 0.00 79 1014.4
20260508130804 61 336 0.0 0.0 0.00 0.01 0.00 79 1014.8
20260508124804 60 336 0.0 0.0 0.00 0.01 0.00 79 1014.6
20260508124304 60 336 0.0 1.7 0.00 0.01 0.00 79 1014.8
20260508123804 60 336 0.0 0.9 0.00 0.01 0.00 79 1014.7
20260508123304 60 336 1.7 5.2 0.00 0.01 0.00 79 1014.7
20260508121804 60 32 2.6 4.3 0.00 0.01 0.00 79 1014.9
20260508121304 60 28 4.3 5.2 0.00 0.01 0.00 79 1014.8
20260508120804 60 29 4.3 5.2 0.00 0.01 0.00 79 1014.8
20260508120304 60 35 3.5 8.7 0.00 0.01 0.00 79 1014.8
20260508114804 60 65 1.7 4.3 0.00 0.01 0.00 79 1015.0
20260508114304 59 49 2.6 7.8 0.00 0.01 0.00 80 1015.0
20260508113804 59 62 0.9 2.6 0.00 0.01 0.00 80 1015.0
20260508113304 59 20 1.7 2.6 0.00 0.01 0.00 80 1015.1
20260508111805 59 19 0.9 1.7 0.00 0.01 0.00 80 1015.2
20260508111304 59 19 0.0 4.3 0.00 0.01 0.00 80 1015.4
20260508110804 59 30 1.7 4.3 0.00 0.01 0.00 80 1015.3
20260508103804 59 11 3.5 8.7 0.00 0.01 0.00 80 1014.5
20260508101804 59 2 1.7 4.3 0.00 0.01 0.00 81 1014.9
20260508101304 59 342 0.9 1.7 0.00 0.01 0.00 80 1015.3
20260508100804 59 342 0.9 2.6 0.00 0.01 0.00 80 1015.4
20260508100304 59 342 0.0 4.3 0.00 0.01 0.00 80 1015.6
20260508094804 59 126 1.7 2.6 0.00 0.01 0.00 80 1015.5
20260508093804 59 126 0.0 0.0 0.00 0.01 0.00 80 1015.5
20260508093304 59 126 0.0 1.7 0.00 0.01 0.00 80 1015.5
20260508091804 60 126 0.9 1.7 0.00 0.01 0.00 80 1015.3
20260508091305 60 126 0.0 0.9 0.00 0.01 0.00 79 1015.2
20260508090803 60 126 0.0 0.0 0.00 0.01 0.00 79 1015.0
20260508090304 60 126 0.0 0.0 0.00 0.01 0.00 79 1015.1
20260508084804 60 126 0.0 0.9 0.00 0.01 0.00 78 1015.2
20260508083804 60 126 0.0 0.9 0.00 0.01 0.00 77 1015.0
20260508083304 60 126 0.0 0.0 0.00 0.01 0.00 77 1015.1
20260508081805 60 126 0.0 0.0 0.00 0.01 0.00 77 1015.2
20260508081304 60 126 0.0 0.0 0.00 0.01 0.00 76 1015.2
20260508080804 60 126 0.0 0.0 0.00 0.01 0.00 76 1015.3
20260508074804 60 134 1.7 4.3 0.00 0.01 0.00 77 1015.0
20260508074305 60 135 1.7 4.3 0.00 0.01 0.00 77 1015.0
20260508073805 59 5 0.9 2.6 0.00 0.01 0.00 77 1014.9
20260508071805 59 1 0.9 7.8 0.00 0.01 0.00 79 1015.0
20260508071305 59 355 0.0 1.7 0.00 0.01 0.00 79 1015.1
20260508070805 59 355 1.7 4.3 0.00 0.01 0.00 79 1014.9
20260508070305 59 355 1.7 2.6 0.00 0.01 0.00 79 1015.0
20260508064805 59 323 0.0 0.0 0.00 0.01 0.00 79 1015.6
20260508064305 59 323 0.0 0.9 0.00 0.01 0.00 79 1015.7
20260508063805 58 323 0.9 1.7 0.00 0.01 0.00 79 1015.6
20260508063305 58 323 0.0 0.0 0.00 0.01 0.00 79 1015.7
20260508061805 58 323 0.9 1.7 0.00 0.01 0.00 79 1015.8
20260508061305 58 323 0.0 0.0 0.00 0.01 0.00 79 1016.1
20260508060806 58 323 0.0 1.7 0.00 0.01 0.00 79 1016.3
20260508060306 58 323 0.0 0.9 0.00 0.01 0.00 79 1016.2
20260508054805 58 323 0.0 0.9 0.00 0.01 0.00 79 1015.8
20260508054305 58 323 0.9 2.6 0.00 0.01 0.00 79 1015.6
20260508053805 59 323 0.0 0.0 0.00 0.01 0.00 79 1015.6
20260508053305 59 323 0.0 0.0 0.00 0.01 0.00 79 1015.9
20260508051805 59 323 0.0 0.9 0.00 0.01 0.00 79 1016.1
20260508051305 59 323 0.9 1.7 0.00 0.01 0.00 78 1016.1
20260508050806 59 323 1.7 2.6 0.00 0.01 0.00 78 1016.1
20260508050306 59 323 0.0 1.7 0.00 0.01 0.00 79 1015.9
20260508044805 59 323 0.9 1.7 0.00 0.01 0.01 79 1015.6
20260508044305 59 323 1.7 2.6 0.00 0.01 0.01 79 1015.9
20260508043805 59 322 0.0 0.9 0.00 0.01 0.01 78 1016.3
20260508043306 59 322 0.0 4.3 0.00 0.01 0.01 78 1016.4
20260508041805 59 37 0.0 1.7 0.00 0.01 0.01 78 1015.8
20260508041305 58 37 0.0 1.7 0.00 0.01 0.01 79 1015.5
20260508040805 58 37 2.6 4.3 0.00 0.01 0.01 79 1015.5
20260508040305 58 15 0.9 2.6 0.00 0.01 0.01 79 1016.1
20260508034805 59 14 0.9 1.7 0.00 0.01 0.01 77 1016.4
20260508034305 59 14 0.0 0.9 0.00 0.01 0.01 77 1016.3
20260508033805 59 14 0.9 1.7 0.00 0.01 0.01 76 1016.5
20260508031305 60 14 0.0 0.0 0.00 0.01 0.01 74 1017.1
20260508030805 60 14 0.9 1.7 0.00 0.01 0.01 74 1017.3
20260508030305 60 14 0.0 1.7 0.00 0.01 0.01 74 1017.1
20260508024805 61 15 0.0 0.0 0.00 0.01 0.01 72 1016.0
20260508024305 61 15 0.0 0.9 0.00 0.01 0.01 72 1015.8
20260508023805 61 15 0.9 1.7 0.00 0.01 0.01 71 1015.8
20260508023305 61 15 0.0 2.6 0.00 0.01 0.01 71 1015.6
20260508021805 62 28 0.0 0.0 0.00 0.01 0.01 70 1015.2
20260508021305 62 28 0.0 2.6 0.00 0.01 0.01 69 1014.8
20260508020805 62 26 0.9 5.2 0.00 0.01 0.01 69 1014.5
20260508014306 62 49 1.7 7.0 0.00 0.01 0.01 68 1014.6
20260508013805 62 66 0.9 4.3 0.00 0.01 0.01 68 1014.6
20260508013305 62 140 0.9 4.3 0.00 0.01 0.01 68 1014.8
20260508011305 63 115 5.2 11.3 0.00 0.01 0.01 65 1014.3
20260508010805 63 98 0.9 2.6 0.00 0.01 0.01 65 1014.5
20260508004805 64 113 2.6 7.0 0.00 0.01 0.01 63 1015.1
20260508004305 64 43 4.3 10.4 0.00 0.01 0.01 63 1015.2
20260508003805 64 24 2.6 8.7 0.00 0.01 0.01 64 1015.4
20260508001305 65 127 2.6 8.7 0.00 0.01 0.01 62 1015.3
20260508000305 66 63 0.9 5.2 0.00 0.01 0.01 62 1015.4